Wind_Speed
15 14 13 13 14 14 14 13 12 12 11 11 10 9 8 8 8 8 9 9 9 9 8 8 9 10 11 13 14 15 15 15 15 14 14 14 14 14 14 14 14 14 14 14 15 15 15 16 16 17 17 17 17 18 18 18 17 17 17 17 17 17 17 17 17 17 17 18 18
16 15 14 14 14 15 15 15 14 14 14 13 12 11 10 9 9 9 9 9 9 8 7 6 7 8 9 10 12 14 15 15 15 15 15 15 15 15 15 15 15 15 15 15 15 15 15 15 16 16 16 17 17 17 17 17 17 17 17 17 17 16 16 16 16 17 17 17 17
15 15 15 15 15 16 16 15 15 15 14 14 13 12 11 10 10 10 10 9 9 8 7 6 5 5 6 7 9 11 13 14 15 15 15 15 16 16 15 15 15 15 15 15 15 15 15 15 15 16 16 16 16 16 17 17 17 16 16 16 16 16 15 15 15 15 15 15 15
15 15 15 15 16 16 16 16 15 15 14 13 12 11 10 10 10 10 10 9 9 8 7 6 5 5 5 6 7 8 10 12 13 14 15 15 16 16 16 16 16 16 16 16 16 16 16 16 16 16 16 16 16 16 17 17 16 16 16 16 16 16 15 15 15 15 15 14 14
15 15 15 15 16 16 16 15 15 15 14 14 12 11 11 10 10 10 10 9 9 8 8 7 6 6 6 6 7 7 8 9 10 11 13 13 14 15 15 16 16 16 16 17 17 17 17 17 17 17 17 17 17 17 17 17 17 17 17 17 17 17 16 16 16 15 15 15 15
15 16 16 16 16 16 16 15 15 15 15 14 13 12 11 11 11 10 10 9 9 9 9 8 8 7 7 7 7 8 8 8 9 9 10 11 12 13 13 14 15 16 16 16 17 17 17 17 18 18 18 18 18 18 18 18 18 18 18 18 18 18 18 18 17 17 17 17 17
15 16 16 17 17 16 16 15 15 15 15 14 13 12 12 11 11 11 10 9 9 9 10 9 9 9 9 9 9 9 9 9 9 9 9 10 11 11 12 13 14 14 15 15 16 16 17 17 18 19 19 19 19 19 19 19 19 20 21 21 20 19 19 19 19 19 19 19 19
13 14 15 16 17 16 16 15 15 15 15 14 13 12 12 11 11 10 10 9 9 10 10 10 10 10 10 9 10 10 10 10 9 9 10 10 10 11 11 12 12 12 13 13 14 14 15 16 17 17 18 18 18 18 18 18 19 20 20 21 20 19 19 19 19 19 19 20 19
11 12 14 15 16 16 16 15 15 15 15 14 13 12 12 12 11 10 10 10 10 10 10 11 11 11 10 10 10 10 10 10 10 10 10 10 10 10 10 10 10 10 10 11 11 11 12 12 13 13 13 13 13 14 14 15 15 16 17 18 18 18 18 18 17 17 17 16 16
9 10 12 13 14 14 14 15 15 14 14 13 12 12 12 11 11 11 11 11 11 11 11 11 11 11 11 10 10 10 10 10 10 10 10 10 10 9 9 8 8 7 8 8 8 9 9 9 9 9 9 10 10 10 11 12 12 13 14 14 15 15 15 14 14 13 12 11 10
7 8 9 10 11 12 12 13 13 13 13 12 12 12 12 12 12 12 12 12 11 11 11 11 11 11 11 10 10 10 10 11 10 10 9 9 8 8 7 7 6 6 6 7 7 7 7 7 6 6 7 8 8 9 9 10 11 11 11 11 11 10 10 9 9 8 7 6 6
7 8 8 9 9 10 10 11 11 12 12 12 12 12 12 12 12 12 12 12 11 11 11 12 12 11 11 10 10 10 11 11 10 10 9 8 7 7 6 6 6 6 6 6 6 6 6 6 5 5 5 6 7 8 8 8 8 9 9 8 8 8 7 5 5 5 5 6 6
8 8 8 8 8 9 9 10 10 11 11 11 12 12 12 12 12 12 12 12 11 11 11 11 11 11 10 10 10 11 11 10 10 9 8 7 7 7 6 6 6 6 6 6 6 6 6 5 5 5 5 6 6 6 7 7 7 8 8 8 7 7 7 6 5 6 6 7 6
9 9 9 9 8 8 8 9 10 10 10 11 11 12 12 12 12 12 12 11 11 11 11 11 11 10 10 10 11 11 10 10 10 9 8 8 8 8 7 7 7 7 7 7 6 6 6 6 6 6 6 6 6 7 7 7 7 8 8 8 8 8 7 7 7 7 7 7 6
10 10 10 9 9 8 8 9 9 10 10 11 11 11 12 12 12 11 11 11 11 11 11 11 10 10 10 10 10 10 10 10 10 9 9 9 9 9 9 9 9 8 8 8 7 7 6 6 7 7 7 7 7 8 8 8 8 8 8 8 8 8 7 7 7 7 7 6 6
10 10 10 10 9 9 8 9 9 9 10 10 11 11 11 11 11 11 11 10 11 11 11 10 10 10 10 10 10 10 10 10 10 10 10 10 10 10 10 10 10 10 9 9 8 8 7 7 7 8 8 8 8 9 9 9 9 9 9 8 8 8 8 7 7 7 7 7 6
10 10 10 10 9 9 9 9 9 9 9 9 10 10 10 10 10 10 10 10 10 10 10 10 10 10 10 10 10 10 10 10 10 10 10 10 11 11 11 11 11 10 10 9 9 9 8 8 8 9 9 9 9 9 10 10 10 10 9 9 9 8 8 8 8 8 8 7 7
10 10 10 9 9 9 9 8 8 8 8 8 9 9 9 8 9 9 9 10 10 10 10 10 10 10 10 10 10 10 10 10 10 10 10 10 11 11 11 11 11 10 10 9 9 9 9 9 9 9 9 10 10 10 10 11 10 10 10 9 9 9 9 9 9 8 8 8 7
9 9 9 9 9 9 9 8 8 7 7 7 8 7 7 7 7 8 9 10 10 9 9 9 9 9 9 9 10 10 10 10 10 10 10 11 11 11 11 11 10 10 10 9 9 9 9 9 9 10 10 11 11 11 11 11 11 11 10 10 10 10 10 10 9 9 9 8 8
9 9 9 9 9 9 9 8 8 7 7 7 7 7 7 6 7 8 9 10 9 9 9 9 9 9 9 9 10 10 10 10 10 10 10 11 11 11 10 10 10 10 10 9 9 9 9 10 10 10 11 11 11 12 12 11 11 11 11 11 11 11 10 10 10 10 9 9 9
9 9 9 9 10 10 9 9 9 8 8 8 7 7 7 6 7 8 9 9 9 8 8 9 9 9 9 9 9 10 10 10 10 11 11 11 11 11 10 10 10 10 10 10 10 10 10 11 11 11 11 11 12 12 12 11 11 11 11 11 11 11 11 10 10 10 10 10 11
10 10 10 10 10 10 10 10 10 9 9 9 8 8 7 7 7 7 8 8 8 8 8 8 9 9 9 10 10 10 10 10 11 11 11 11 11 11 11 11 11 11 11 11 11 11 11 12 12 12 12 12 11 11 11 11 11 11 11 11 11 11 10 10 11 11 11 12 12
10 10 10 10 10 11 11 11 10 10 10 10 9 9 8 7 7 7 7 7 8 8 8 9 9 9 10 10 10 10 10 10 10 11 11 11 11 11 11 11 11 11 11 11 12 12 12 12 12 12 12 12 11 11 11 10 10 10 10 10 10 10 10 11 11 12 12 13 14
11 11 11 11 11 11 11 11 11 11 11 11 10 9 8 8 7 7 7 7 8 8 8 9 9 9 9 10 10 10 10 10 10 10 11 11 11 11 11 12 12 12 12 12 12 12 12 12 12 12 12 11 11 11 10 10 10 9 9 9 10 10 10 11 11 12 13 14 15
12 12 12 12 12 11 11 11 11 12 11 11 10 9 9 8 8 8 8 8 9 9 9 9 9 9 9 9 9 9 9 9 9 10 10 10 11 11 11 11 12 12 12 12 12 11 11 11 11 11 11 11 10 10 10 10 9 9 9 9 9 10 10 11 12 13 14 14 15
13 13 12 12 12 12 12 11 12 12 11 11 11 10 10 9 9 9 9 10 10 10 9 9 9 9 9 9 9 9 9 10 10 10 10 10 10 11 11 11 11 11 11 11 11 11 11 10 10 10 10 9 9 9 9 9 9 9 9 9 9 9 10 11 12 13 14 14 14
13 13 13 13 12 12 12 12 12 12 12 11 11 11 11 10 10 10 10 11 11 11 10 10 10 9 9 9 9 9 10 10 10 10 10 10 10 10 10 10 11 11 11 11 11 10 10 10 10 9 9 9 8 8 8 8 9 9 9 9 9 9 10 11 12 13 14 14 13
14 14 14 13 13 13 13 12 12 12 12 12 12 12 11 11 11 11 11 11 11 11 11 11 11 10 10 10 10 10 10 11 11 11 11 10 10 10 10 10 10 10 10 11 11 10 10 10 10 9 9 9 8 8 8 8 8 8 8 9 9 10 10 11 12 13 14 14 13
15 15 14 14 14 14 13 13 13 13 13 12 12 12 12 12 12 12 12 12 12 12 12 12 11 11 11 11 11 11 12 12 12 12 11 11 11 10 10 10 10 10 10 10 10 10 10 10 10 9 9 9 9 8 8 8 8 8 8 8 9 10 11 12 12 13 14 14 13
15 15 15 15 15 15 15 14 14 14 13 13 13 13 13 13 12 12 12 12 12 12 12 12 12 12 12 12 12 13 13 13 13 12 12 12 11 11 11 11 11 10 10 10 10 10 10 10 10 10 9 9 9 9 8 8 8 8 8 8 9 10 10 11 12 13 14 14 14
16 16 16 16 16 16 16 15 15 15 15 14 14 14 14 13 13 13 13 12 12 12 12 12 12 12 12 13 13 14 14 14 13 13 13 13 13 12 12 12 11 11 11 10 10 10 10 10 10 10 9 9 9 9 9 9 8 8 8 9 9 10 11 12 13 14 14 14 14
17 17 17 17 17 17 17 16 16 16 16 15 15 15 14 14 13 13 13 13 13 13 13 12 12 12 13 13 14 14 14 14 14 14 14 14 14 13 13 13 12 12 11 11 11 11 10 10 10 10 9 9 9 9 9 9 9 9 9 10 10 11 11 12 13 14 14 14 13
18 18 18 18 18 18 17 17 17 17 17 16 16 16 15 15 14 14 13 13 13 13 13 13 13 13 13 13 14 14 15 14 15 15 15 15 15 14 14 14 13 13 12 12 12 12 11 11 10 10 9 9 9 9 9 9 10 10 10 11 11 12 12 13 13 13 13 13 13
19 19 19 18 18 18 18 18 18 18 18 17 17 17 16 16 15 15 14 14 13 13 13 13 13 13 13 13 14 14 14 15 15 15 15 15 15 15 15 15 14 14 13 13 13 12 12 11 11 10 10 10 9 9 10 10 10 11 11 12 13 13 13 13 13 13 13 13 13
19 19 19 19 19 19 19 19 19 19 19 19 18 18 17 17 16 16 15 14 14 14 13 13 13 14 13 13 13 14 14 14 14 15 15 15 15 15 15 15 15 14 14 14 14 13 12 12 11 11 10 10 10 10 10 11 11 12 12 12 13 13 13 13 13 12 12 12 12
19 19 19 19 19 19 20 20 20 20 20 20 19 19 18 18 17 16 16 15 15 14 14 14 14 14 14 13 13 13 13 13 14 14 14 14 14 14 15 15 15 15 15 15 14 14 13 12 12 12 11 11 11 11 11 12 12 12 12 12 12 12 12 12 12 12 12 12 12
20 19 19 19 19 19 20 20 21 21 21 21 20 19 19 18 18 17 17 16 16 15 15 14 14 14 13 13 13 13 13 13 13 12 12 12 12 13 13 14 15 15 14 14 14 14 14 13 13 13 12 12 12 12 12 12 12 12 12 12 12 11 11 11 12 12 12 12 12
19 19 19 19 19 19 20 21 21 22 21 21 20 20 20 19 19 18 18 17 17 16 16 15 14 13 13 12 13 13 12 12 12 12 11 11 11 11 12 13 14 14 14 14 14 14 14 14 14 14 13 13 13 13 13 13 12 12 12 11 11 11 11 11 11 12 12 12 12
19 19 19 19 19 19 20 21 21 22 22 21 21 21 20 20 19 19 19 18 18 17 16 16 15 14 13 12 12 12 12 12 12 11 11 10 10 10 11 12 13 14 14 14 14 14 15 15 15 15 14 14 14 14 13 13 12 12 11 11 10 10 10 11 12 12 13 13 13
19 19 19 18 19 19 20 20 21 21 21 21 21 21 21 20 20 19 19 19 18 18 17 16 15 15 14 13 12 12 12 11 11 11 11 11 10 10 10 11 12 13 14 14 14 15 15 15 16 15 15 15 15 14 13 13 12 12 11 11 11 11 11 11 12 12 13 13 13
20 19 19 19 18 19 19 20 21 21 21 22 22 21 21 20 20 20 20 20 19 19 18 18 17 16 15 15 14 13 12 12 11 11 11 11 11 11 11 11 12 13 14 14 14 15 15 16 16 16 16 16 15 14 14 13 12 12 11 11 11 11 12 12 12 13 13 13 13
Wind_Direction
223 228 233 234 235 236 238 241 249 256 260 262 264 267 270 272 272 275 283 294 305 309 301 280 261 250 243 238 235 233 231 228 227 227 228 228 229 229 229 228 228 228 228 228 229 229 229 229 228 228 227 226 226 226 227 228 228 228 228 229 229 230 229 227 224 222 220 218 218
224 228 231 233 234 235 236 240 245 251 256 259 262 265 268 269 269 270 275 285 300 311 310 292 265 251 245 240 236 234 233 231 231 230 231 232 232 232 232 231 231 230 230 230 230 231 231 230 230 229 228 227 226 226 227 227 227 228 228 229 230 230 230 229 227 225 223 222 221
226 228 231 234 235 235 236 238 242 248 254 258 262 265 267 266 265 266 270 277 290 302 306 299 277 257 247 242 238 235 235 234 234 235 235 236 236 236 236 236 235 234 234 234 233 233 233 232 231 230 229 228 228 228 228 229 229 229 230 231 233 233 234 233 233 231 229 228 228
230 231 234 236 238 238 238 237 240 246 251 256 260 262 263 263 262 264 267 273 280 286 290 287 276 261 250 244 239 236 235 235 236 237 238 239 239 239 240 239 239 238 238 237 237 236 235 234 233 232 231 231 231 231 232 233 232 233 234 235 236 237 238 238 238 237 236 235 235
238 238 238 240 241 240 239 238 239 243 247 251 253 255 256 258 259 261 264 267 270 275 278 278 271 262 254 247 243 239 237 236 237 237 239 239 240 240 241 241 240 240 239 238 238 237 236 235 234 233 233 233 234 235 235 236 236 236 238 239 240 240 241 241 241 241 241 241 240
243 243 243 243 242 241 239 237 238 240 243 246 247 248 249 251 253 255 256 258 262 268 273 275 272 269 263 259 254 251 247 244 242 240 240 240 240 240 240 241 240 239 239 238 237 237 236 235 235 234 235 235 236 237 238 239 239 239 240 241 242 242 243 243 242 242 242 242 242
245 246 246 245 243 241 238 237 238 239 241 243 244 245 246 247 248 248 248 251 257 263 269 272 273 272 271 269 266 263 260 257 252 248 245 244 243 243 243 243 241 240 239 237 237 236 236 235 235 235 236 237 238 239 241 241 242 242 242 242 243 243 243 244 244 243 243 243 243
245 246 246 245 243 240 238 237 238 239 240 241 242 244 246 247 247 247 248 250 255 260 265 269 272 273 272 272 271 270 267 264 261 257 253 251 250 250 249 248 246 243 240 238 236 236 236 236 235 235 236 237 239 240 241 242 243 243 243 243 243 244 244 245 245 246 245 245 245
243 244 245 244 243 241 239 239 240 240 240 241 242 243 246 248 249 250 252 253 256 259 263 267 270 271 272 271 272 272 270 268 264 261 259 258 257 256 255 253 250 247 243 238 235 233 233 233 232 231 231 233 235 237 240 241 242 243 243 242 243 244 245 246 247 247 246 245 245
242 243 243 243 243 243 243 244 245 245 245 245 245 247 248 250 251 252 253 254 256 259 262 266 269 270 271 271 272 273 273 271 267 264 261 261 260 258 257 254 251 247 243 239 233 229 227 225 223 222 224 227 229 234 239 240 240 239 239 238 239 241 245 246 246 244 242 241 239
241 242 242 243 244 245 246 248 249 250 250 250 250 251 252 252 253 253 253 254 256 257 260 263 265 266 267 269 271 273 274 274 271 268 264 262 259 256 253 250 245 239 234 232 229 226 222 218 213 213 219 225 228 233 237 239 235 230 228 229 229 230 234 239 238 232 223 215 210
240 241 243 244 245 246 247 248 249 250 250 250 251 252 253 253 254 255 255 256 256 256 257 259 260 261 263 264 266 267 268 269 269 267 263 259 255 251 247 242 234 225 220 221 221 221 216 210 202 200 206 216 221 225 228 228 220 212 209 208 207 204 203 206 203 192 180 172 168
239 242 244 245 245 246 247 248 248 249 249 250 250 251 252 253 254 255 256 256 256 255 256 256 256 256 257 258 258 258 258 258 258 256 254 249 245 239 235 229 221 212 207 208 210 210 207 199 193 188 188 194 202 207 208 204 195 188 185 184 181 178 174 167 156 150 149 149 152
239 242 243 244 245 246 247 248 250 251 251 252 252 252 252 253 254 255 256 256 255 255 254 253 253 252 252 251 250 249 247 246 244 242 240 237 233 229 223 218 210 203 199 198 200 201 198 192 188 184 182 182 185 188 189 187 180 173 170 169 168 164 158 150 142 138 140 144 149
240 241 243 244 244 244 246 249 252 254 255 256 255 255 255 255 256 256 256 254 253 252 251 250 249 248 248 247 244 241 238 236 233 231 229 227 224 220 215 210 204 199 196 196 198 197 196 191 188 185 182 180 181 182 182 180 177 171 166 163 160 155 150 146 141 139 142 148 155
238 240 242 243 242 243 244 247 251 255 257 258 258 259 258 257 257 257 255 251 249 247 245 244 244 244 244 243 241 237 233 229 227 224 222 219 217 214 210 205 200 197 196 197 199 199 196 194 191 188 184 183 182 182 182 180 177 172 167 162 157 154 150 148 148 147 149 154 161
236 238 240 240 241 240 240 242 246 250 254 257 258 259 259 257 257 256 253 249 244 241 238 238 238 238 238 238 238 234 228 224 220 217 215 213 210 208 205 202 199 197 196 197 198 198 197 194 191 188 184 182 182 182 182 180 176 171 166 163 159 156 155 156 156 157 157 158 162
232 233 235 236 236 236 235 235 237 241 247 252 256 257 256 255 252 249 247 244 240 236 232 231 232 232 231 230 230 228 223 217 213 210 207 205 204 202 200 199 197 195 194 194 194 194 194 191 188 185 182 180 179 179 177 175 171 167 164 161 159 158 159 160 161 161 160 159 159
229 229 230 231 232 232 230 229 230 234 240 246 250 252 252 248 242 238 236 235 234 231 228 226 226 226 225 223 222 220 216 211 205 201 199 197 195 195 193 193 192 191 189 188 188 187 186 184 182 179 176 175 173 173 171 168 165 162 160 159 158 158 159 160 160 160 159 158 156
228 227 227 228 230 230 229 228 228 231 235 239 242 245 242 236 228 223 222 224 226 226 223 222 221 221 219 217 214 211 207 203 197 192 190 188 187 186 186 185 184 183 181 179 177 176 175 174 172 170 168 167 166 165 163 161 159 158 158 157 157 158 158 158 158 157 156 155 154
228 227 227 228 229 230 230 230 230 230 232 233 235 234 229 220 212 209 211 215 218 218 218 217 217 214 212 209 205 201 198 195 189 184 182 180 179 177 177 176 175 174 172 170 168 167 165 164 162 160 160 159 159 158 156 155 154 155 155 156 156 156 157 156 156 155 154 153 152
228 227 227 228 228 229 230 231 230 230 230 229 229 226 220 211 202 201 205 210 212 212 212 212 211 209 205 201 197 193 190 186 182 178 175 174 172 171 169 169 167 166 165 163 162 160 159 158 156 155 154 153 153 153 152 152 153 153 153 154 154 154 155 155 156 155 154 153 152
228 227 227 227 227 227 228 229 230 231 231 229 226 223 217 209 202 202 204 208 210 209 208 208 207 204 201 196 192 188 185 181 177 174 171 169 168 166 164 163 162 161 160 159 158 157 156 155 154 153 151 151 151 150 150 151 152 152 153 153 153 154 155 156 156 156 155 154 153
227 226 226 226 227 227 227 228 230 232 232 231 229 225 220 214 209 206 207 210 211 210 208 206 205 202 198 193 188 184 181 178 175 172 170 168 166 164 162 160 159 159 159 158 157 156 156 155 154 152 152 151 151 151 151 151 152 153 154 155 155 156 156 157 157 157 157 156 155
228 226 226 226 226 226 227 228 230 232 234 234 232 229 226 221 216 211 209 212 214 213 211 207 205 202 199 194 188 184 181 179 176 174 171 169 167 165 163 161 160 160 160 159 158 157 156 156 155 154 154 153 153 153 153 153 154 156 157 159 159 159 159 158 158 159 159 159 157
229 228 226 226 226 226 227 228 230 232 234 234 234 233 231 227 223 217 213 213 214 215 214 211 208 206 203 199 194 188 184 182 180 178 175 173 170 168 166 164 163 162 161 160 160 159 158 157 157 157 157 157 157 157 157 157 158 159 161 162 162 163 162 161 160 160 160 159 158
230 229 227 226 226 226 226 228 230 232 233 235 235 235 234 231 228 224 220 216 215 216 215 213 211 208 207 204 201 196 191 188 185 183 180 177 175 173 170 168 166 165 164 163 161 160 159 160 159 160 161 162 163 164 163 162 162 163 164 164 165 165 165 164 162 160 158 157 157
231 230 229 227 226 226 226 227 229 231 232 234 235 236 235 235 233 230 226 222 219 218 216 215 212 210 209 208 206 202 198 194 191 188 184 181 179 177 175 172 171 169 167 166 165 163 162 162 163 163 165 167 169 170 170 170 168 167 167 167 167 167 168 166 164 161 160 159 160
231 231 230 228 227 226 226 226 227 229 231 233 234 235 236 236 236 235 232 228 224 221 219 217 214 210 208 207 207 205 202 199 196 193 189 185 182 181 179 177 175 173 172 171 170 167 166 166 166 167 169 171 173 175 175 176 175 173 171 170 169 169 169 169 167 166 166 166 166
230 231 230 229 228 227 226 226 227 228 230 231 233 234 235 236 237 236 234 232 229 225 222 219 215 210 206 204 205 205 204 201 198 196 193 189 186 185 183 182 180 178 177 176 175 173 171 170 171 171 173 174 175 176 177 178 178 178 176 174 172 172 172 173 173 173 173 173 172
230 230 230 230 229 228 227 226 226 227 229 230 231 233 234 235 235 235 235 233 231 228 224 221 217 211 205 202 201 202 202 201 199 198 196 194 191 189 188 186 185 182 181 181 181 180 178 177 176 176 177 177 178 178 178 179 180 179 178 176 174 174 176 177 178 179 178 177 175
230 230 230 230 229 228 227 227 227 227 228 229 230 231 232 233 233 234 234 233 231 228 225 222 218 213 207 201 198 198 199 199 198 198 197 197 195 194 192 190 189 187 186 186 186 187 185 183 181 180 181 182 182 182 182 182 182 181 179 178 177 177 178 179 180 180 180 178 176
230 230 230 230 229 229 228 227 227 227 228 229 229 230 230 231 232 232 232 232 230 228 225 222 219 215 210 202 196 194 194 195 196 197 197 197 196 196 195 195 194 193 191 191 191 191 190 188 186 185 185 187 188 188 188 187 186 185 183 181 180 180 180 180 180 180 179 178 177
230 231 230 230 229 229 228 228 228 228 228 228 229 229 229 230 230 230 231 230 229 227 225 222 221 218 212 205 196 191 190 191 193 194 195 195 195 196 197 198 198 197 197 196 195 194 193 191 190 189 190 193 195 195 194 192 191 189 188 186 184 183 182 181 179 179 179 179 179
232 232 231 230 229 229 229 228 228 228 228 228 228 228 228 228 228 229 229 230 229 227 225 222 221 218 213 207 199 192 188 188 190 191 192 192 192 193 196 198 199 200 200 200 199 198 196 195 194 194 196 198 199 200 199 197 195 193 191 189 188 186 184 182 181 180 180 181 183
233 233 233 231 230 229 229 229 229 229 228 228 228 228 228 227 227 227 228 228 228 227 225 223 221 219 215 210 202 194 188 186 188 189 189 188 188 190 194 197 199 201 202 202 202 200 199 199 199 199 200 202 203 203 202 200 198 195 194 192 190 188 186 184 183 183 184 186 188
235 235 235 233 232 230 230 229 229 229 229 228 228 228 227 227 226 225 225 226 227 227 226 225 223 221 217 211 205 197 191 187 187 187 187 186 186 188 192 196 199 201 203 204 204 203 203 203 203 204 205 205 206 206 204 202 200 198 196 194 192 191 190 189 189 189 190 192 193
235 236 236 235 233 232 231 230 230 230 229 229 228 228 227 227 226 225 225 225 225 226 226 226 225 223 220 215 209 202 196 190 188 187 187 187 187 188 192 196 199 202 203 205 206 206 206 206 206 206 208 208 209 208 207 205 202 200 198 196 195 195 195 195 195 195 196 197 199
235 236 236 236 234 233 232 231 231 231 230 229 229 228 227 227 226 225 225 225 225 226 226 227 227 226 224 220 215 209 203 197 192 190 188 189 190 191 193 198 202 203 204 206 208 209 210 209 209 209 209 210 210 210 209 207 205 203 201 201 201 201 202 202 202 201 202 202 203
234 236 236 236 235 234 233 232 232 231 231 230 229 228 228 227 226 226 225 225 225 225 226 227 228 228 226 224 221 218 213 207 201 196 193 192 193 194 197 200 205 206 206 207 209 212 213 212 211 210 211 211 211 211 210 209 207 206 206 206 207 207 208 208 208 207 207 207 208
233 235 235 235 235 234 233 233 232 232 231 230 229 229 228 228 227 227 226 225 225 225 225 225 227 228 227 227 226 224 222 218 212 206 200 197 197 199 201 204 207 209 209 208 210 213 215 215 213 212 212 212 212 212 211 210 209 209 209 211 212 213 213 213 212 211 211 211 212
Height
1490 1490 1490 1490 1490 1490 1490 1490 1490 1490 1491 1491 1491 1491 1491 1491 1491 1491 1491 1491 1490 1490 1490 1489 1489 1490 1490 1491 1491 1492 1493 1494 1494 1495 1495 1496 1496 1496 1496 1497 1497 1497 1497 1498 1498 1499 1499 1500 1500 1501 1501 1502 1502 1503 1503 1504 1504 1504 1505 1505 1506 1506 1506 1507 1507 1508 1508 1508 1509
1489 1489 1489 1489 1489 1489 1489 1490 1490 1490 1490 1490 1490 1491 1491 1491 1491 1491 1490 1490 1490 1490 1489 1489 1489 1489 1490 1490 1491 1492 1493 1493 1494 1494 1495 1495 1495 1496 1496 1496 1496 1496 1497 1497 1497 1498 1499 1499 1499 1500 1500 1501 1502 1502 1503 1503 1504 1504 1504 1504 1505 1505 1505 1506 1506 1506 1507 1507 1507
1487 1488 1488 1488 1488 1489 1489 1489 1489 1490 1490 1490 1490 1490 1491 1491 1491 1490 1490 1490 1490 1490 1489 1489 1489 1489 1490 1490 1491 1492 1492 1493 1494 1494 1494 1495 1495 1495 1495 1495 1495 1495 1496 1496 1497 1497 1498 1498 1499 1499 1500 1500 1501 1501 1502 1502 1503 1503 1503 1504 1504 1504 1504 1504 1505 1505 1505 1506 1506
1487 1487 1487 1487 1488 1488 1488 1489 1489 1489 1489 1489 1490 1490 1490 1490 1490 1490 1490 1490 1490 1490 1490 1490 1489 1489 1490 1490 1490 1491 1492 1493 1493 1494 1494 1494 1494 1494 1494 1494 1494 1495 1495 1495 1496 1497 1497 1498 1498 1499 1499 1500 1500 1500 1501 1501 1502 1502 1502 1502 1503 1503 1503 1503 1503 1504 1504 1504 1505
1486 1487 1487 1487 1487 1487 1488 1488 1488 1489 1489 1489 1489 1489 1490 1490 1490 1490 1490 1490 1490 1489 1489 1490 1490 1490 1490 1490 1490 1491 1491 1492 1493 1493 1493 1493 1493 1493 1493 1494 1494 1494 1494 1494 1495 1495 1496 1497 1497 1498 1498 1499 1499 1499 1500 1500 1501 1501 1501 1501 1501 1501 1502 1502 1502 1502 1503 1503 1504
1486 1486 1486 1486 1487 1487 1487 1487 1488 1488 1488 1489 1489 1489 1489 1489 1489 1489 1489 1489 1489 1489 1489 1489 1489 1490 1490 1490 1490 1491 1491 1492 1492 1492 1492 1492 1492 1492 1492 1493 1493 1493 1493 1494 1494 1494 1495 1495 1496 1496 1497 1498 1498 1498 1499 1499 1499 1499 1499 1500 1500 1500 1500 1500 1501 1501 1501 1502 1502
1485 1486 1486 1486 1486 1486 1486 1487 1487 1487 1488 1488 1488 1488 1488 1489 1489 1489 1489 1489 1489 1489 1489 1489 1489 1489 1490 1490 1490 1490 1491 1491 1491 1491 1491 1491 1491 1491 1492 1492 1492 1492 1492 1493 1493 1493 1494 1494 1495 1495 1496 1496 1496 1497 1497 1498 1498 1498 1498 1498 1498 1498 1499 1499 1499 1499 1500 1500 1501
1485 1485 1485 1485 1486 1486 1486 1486 1486 1486 1487 1487 1487 1487 1487 1488 1488 1488 1488 1488 1488 1488 1489 1489 1489 1489 1489 1489 1490 1490 1490 1490 1491 1491 1491 1491 1490 1491 1491 1491 1491 1491 1491 1491 1492 1492 1493 1493 1494 1494 1494 1495 1495 1495 1496 1496 1496 1496 1496 1497 1497 1497 1497 1497 1498 1498 1499 1499 1499
1484 1484 1485 1485 1485 1485 1485 1485 1486 1486 1486 1486 1486 1486 1487 1487 1487 1487 1487 1487 1487 1488 1488 1488 1488 1489 1489 1489 1489 1489 1490 1490 1490 1490 1490 1490 1490 1490 1490 1490 1490 1490 1490 1491 1491 1491 1492 1492 1493 1493 1493 1494 1494 1494 1494 1494 1495 1495 1495 1495 1495 1495 1496 1496 1497 1497 1498 1498 1498
1484 1484 1484 1485 1485 1485 1485 1485 1485 1485 1485 1485 1486 1486 1486 1486 1486 1486 1486 1486 1487 1487 1487 1487 1488 1488 1488 1488 1489 1489 1489 1489 1489 1489 1489 1489 1489 1489 1489 1489 1490 1490 1490 1490 1490 1490 1491 1492 1492 1492 1492 1493 1493 1493 1493 1493 1494 1494 1494 1494 1494 1494 1495 1495 1496 1496 1496 1497 1497
1483 1484 1484 1484 1484 1484 1485 1485 1485 1485 1485 1485 1485 1485 1485 1485 1485 1485 1486 1486 1486 1486 1487 1487 1487 1487 1488 1488 1488 1488 1488 1488 1488 1489 1489 1489 1489 1489 1489 1489 1489 1489 1489 1489 1489 1490 1490 1491 1491 1492 1492 1492 1492 1492 1492 1492 1493 1493 1493 1493 1493 1494 1494 1494 1495 1495 1496 1496 1497
1483 1483 1484 1484 1484 1484 1484 1484 1484 1484 1485 1485 1485 1485 1485 1485 1485 1485 1485 1485 1485 1486 1486 1486 1487 1487 1487 1487 1487 1488 1488 1488 1488 1488 1488 1488 1488 1488 1488 1488 1489 1489 1489 1489 1489 1489 1490 1490 1491 1491 1491 1491 1491 1491 1491 1491 1492 1492 1492 1492 1493 1493 1493 1494 1494 1495 1495 1496 1496
1483 1483 1483 1483 1484 1484 1484 1484 1484 1484 1484 1484 1484 1485 1485 1485 1485 1485 1485 1485 1485 1485 1485 1486 1486 1486 1487 1487 1487 1487 1487 1488 1488 1488 1488 1488 1488 1488 1488 1488 1488 1488 1488 1489 1489 1489 1489 1489 1490 1490 1490 1490 1490 1490 1491 1491 1491 1491 1491 1492 1492 1492 1493 1494 1494 1494 1495 1495 1496
1483 1483 1483 1483 1483 1484 1484 1484 1484 1484 1484 1484 1484 1484 1485 1485 1485 1485 1485 1485 1485 1485 1485 1485 1486 1486 1486 1487 1487 1487 1487 1487 1487 1487 1488 1488 1488 1488 1488 1488 1488 1488 1488 1488 1488 1489 1489 1489 1489 1490 1490 1490 1490 1490 1490 1490 1491 1491 1491 1491 1492 1492 1493 1493 1494 1494 1495 1495 1496
1483 1483 1483 1483 1483 1483 1484 1484 1484 1484 1484 1484 1484 1484 1484 1484 1484 1485 1485 1485 1485 1485 1485 1485 1486 1486 1486 1486 1486 1487 1487 1487 1487 1487 1487 1487 1487 1487 1487 1487 1487 1488 1488 1488 1488 1488 1489 1489 1489 1489 1489 1490 1490 1490 1490 1490 1490 1491 1491 1491 1492 1492 1493 1493 1494 1494 1495 1495 1496
1483 1483 1483 1483 1483 1483 1483 1483 1484 1484 1484 1484 1484 1484 1484 1484 1484 1484 1484 1485 1485 1485 1485 1485 1486 1486 1486 1486 1486 1486 1486 1486 1487 1487 1487 1487 1487 1487 1487 1487 1487 1487 1488 1488 1488 1488 1488 1489 1489 1489 1489 1489 1489 1490 1490 1490 1490 1490 1491 1491 1492 1492 1493 1493 1494 1494 1495 1495 1496
1482 1482 1483 1483 1483 1483 1483 1483 1483 1484 1484 1484 1484 1484 1484 1484 1484 1484 1484 1484 1484 1485 1485 1485 1485 1486 1486 1486 1486 1486 1486 1486 1486 1486 1486 1486 1486 1486 1486 1487 1487 1487 1487 1487 1488 1488 1488 1488 1489 1489 1489 1489 1489 1489 1490 1490 1490 1490 1491 1491 1492 1492 1493 1493 1494 1494 1495 1495 1496
1482 1482 1482 1482 1482 1483 1483 1483 1483 1483 1483 1483 1483 1483 1484 1484 1484 1484 1484 1484 1484 1484 1484 1485 1485 1485 1485 1485 1485 1485 1485 1486 1486 1486 1486 1486 1486 1486 1486 1486 1486 1487 1487 1487 1487 1488 1488 1488 1489 1489 1489 1489 1489 1489 1490 1490 1490 1491 1491 1491 1492 1492 1493 1494 1494 1494 1495 1495 1496
1482 1482 1482 1482 1482 1482 1482 1483 1483 1483 1483 1483 1483 1483 1483 1483 1484 1484 1484 1484 1484 1484 1484 1484 1484 1484 1485 1485 1485 1485 1485 1485 1485 1485 1485 1485 1485 1485 1486 1486 1486 1486 1487 1487 1487 1487 1488 1488 1488 1489 1489 1489 1489 1489 1490 1490 1490 1491 1491 1491 1492 1492 1493 1494 1494 1494 1495 1495 1496
1482 1482 1482 1482 1482 1482 1482 1482 1482 1482 1482 1483 1483 1483 1483 1483 1483 1483 1483 1483 1484 1484 1484 1484 1484 1484 1484 1484 1484 1484 1484 1484 1485 1485 1485 1485 1485 1485 1485 1486 1486 1486 1486 1487 1487 1487 1488 1488 1488 1489 1489 1489 1489 1489 1490 1490 1490 1491 1491 1491 1492 1492 1493 1493 1494 1494 1494 1495 1496
1481 1481 1482 1482 1482 1482 1482 1482 1482 1482 1482 1482 1482 1483 1483 1483 1483 1483 1483 1483 1483 1483 1484 1484 1484 1484 1484 1484 1484 1484 1484 1484 1484 1484 1484 1485 1485 1485 1485 1486 1486 1486 1486 1487 1487 1487 1488 1488 1488 1489 1489 1489 1489 1489 1490 1490 1490 1491 1491 1492 1492 1493 1493 1493 1494 1494 1494 1495 1496
1481 1481 1481 1481 1481 1481 1481 1482 1482 1482 1482 1482 1482 1483 1483 1483 1483 1483 1483 1483 1483 1483 1483 1483 1484 1484 1484 1484 1484 1484 1484 1484 1484 1484 1484 1485 1485 1485 1485 1486 1486 1486 1486 1487 1487 1487 1488 1488 1488 1489 1489 1489 1489 1490 1490 1490 1491 1491 1491 1492 1492 1493 1493 1494 1494 1494 1495 1495 1496
1480 1481 1481 1481 1481 1481 1481 1481 1481 1482 1482 1482 1482 1482 1482 1482 1482 1482 1482 1482 1482 1483 1483 1483 1483 1483 1484 1484 1484 1484 1484 1484 1484 1484 1485 1485 1485 1485 1485 1486 1486 1486 1487 1487 1487 1488 1488 1488 1489 1489 1489 1489 1490 1490 1490 1491 1491 1492 1492 1492 1493 1493 1493 1494 1494 1494 1495 1495 1496
1480 1480 1480 1480 1480 1481 1481 1481 1481 1481 1481 1482 1482 1482 1482 1482 1482 1482 1482 1482 1482 1482 1483 1483 1483 1483 1483 1483 1484 1484 1484 1484 1484 1485 1485 1485 1485 1485 1486 1486 1486 1486 1487 1487 1488 1488 1488 1489 1489 1489 1489 1490 1490 1490 1491 1491 1492 1492 1492 1493 1493 1493 1494 1494 1494 1494 1495 1495 1496
1479 1479 1479 1480 1480 1480 1480 1481 1481 1481 1481 1481 1481 1481 1481 1482 1482 1482 1482 1482 1482 1482 1482 1482 1483 1483 1483 1483 1483 1484 1484 1484 1484 1485 1485 1485 1485 1486 1486 1486 1486 1487 1487 1488 1488 1488 1489 1489 1489 1489 1490 1490 1490 1491 1491 1492 1492 1492 1493 1493 1493 1494 1494 1494 1494 1495 1495 1496 1496
1479 1479 1479 1479 1479 1480 1480 1480 1480 1481 1481 1481 1481 1481 1481 1481 1481 1482 1482 1482 1482 1482 1482 1482 1482 1482 1483 1483 1483 1483 1484 1484 1484 1485 1485 1485 1486 1486 1486 1486 1487 1487 1487 1488 1488 1489 1489 1489 1489 1490 1490 1490 1491 1491 1491 1492 1492 1493 1493 1494 1494 1494 1494 1494 1495 1495 1496 1496 1496
1478 1478 1479 1479 1479 1479 1479 1480 1480 1480 1480 1480 1481 1481 1481 1481 1481 1481 1481 1482 1482 1481 1481 1482 1482 1482 1482 1482 1483 1483 1484 1484 1484 1485 1485 1485 1486 1486 1486 1486 1487 1487 1488 1488 1488 1489 1489 1489 1490 1490 1490 1491 1491 1492 1492 1492 1493 1493 1493 1494 1494 1494 1494 1495 1495 1495 1496 1497 1497
1477 1478 1478 1478 1478 1479 1479 1479 1479 1480 1480 1480 1480 1480 1480 1481 1481 1481 1481 1481 1481 1481 1481 1481 1481 1481 1482 1482 1483 1483 1483 1484 1484 1484 1485 1485 1486 1486 1486 1487 1487 1487 1488 1488 1488 1489 1489 1489 1490 1490 1491 1491 1492 1492 1492 1493 1493 1493 1494 1494 1494 1494 1495 1495 1495 1496 1496 1497 1498
1476 1477 1477 1477 1478 1478 1478 1479 1479 1479 1479 1480 1480 1480 1480 1480 1480 1480 1480 1481 1481 1481 1481 1481 1481 1481 1482 1482 1482 1483 1483 1484 1484 1484 1485 1485 1485 1486 1486 1487 1487 1487 1488 1488 1489 1489 1489 1490 1490 1491 1491 1492 1492 1492 1493 1493 1493 1493 1494 1494 1494 1495 1495 1495 1496 1496 1497 1498 1498
1475 1476 1476 1477 1477 1477 1478 1478 1478 1479 1479 1479 1479 1479 1480 1480 1480 1480 1480 1480 1480 1480 1480 1480 1480 1481 1481 1482 1482 1482 1483 1483 1484 1484 1484 1485 1485 1486 1486 1486 1487 1487 1488 1488 1489 1489 1489 1490 1490 1491 1491 1492 1492 1492 1493 1493 1493 1494 1494 1494 1494 1495 1495 1496 1496 1497 1497 1498 1499
1474 1475 1475 1476 1476 1476 1477 1477 1478 1478 1478 1479 1479 1479 1479 1479 1479 1479 1479 1479 1480 1480 1480 1480 1480 1480 1481 1481 1482 1482 1482 1483 1483 1484 1484 1484 1485 1485 1486 1486 1487 1487 1488 1488 1489 1489 1489 1490 1490 1491 1491 1491 1492 1492 1492 1493 1493 1494 1494 1494 1495 1495 1496 1496 1497 1497 1498 1498 1499
1473 1474 1474 1475 1475 1476 1476 1476 1477 1477 1478 1478 1478 1478 1479 1479 1479 1479 1479 1479 1479 1479 1479 1479 1480 1480 1480 1481 1481 1481 1482 1482 1483 1483 1484 1484 1484 1485 1485 1486 1486 1487 1487 1488 1489 1489 1489 1489 1490 1490 1491 1491 1492 1492 1492 1493 1493 1494 1494 1494 1495 1495 1496 1496 1497 1497 1498 1498 1499
1472 1472 1473 1474 1474 1475 1475 1476 1476 1476 1477 1477 1477 1478 1478 1478 1478 1479 1479 1479 1479 1479 1479 1479 1479 1479 1480 1480 1481 1481 1481 1482 1482 1483 1483 1484 1484 1485 1485 1486 1486 1487 1487 1488 1488 1489 1489 1489 1489 1490 1490 1491 1491 1492 1492 1493 1493 1494 1494 1494 1495 1495 1496 1496 1497 1497 1498 1498 1499
1470 1471 1472 1472 1473 1474 1474 1474 1475 1475 1476 1476 1477 1477 1477 1477 1478 1478 1478 1478 1478 1479 1479 1479 1479 1479 1479 1480 1480 1481 1481 1481 1482 1482 1483 1483 1484 1484 1485 1485 1486 1486 1487 1487 1488 1488 1489 1489 1489 1489 1490 1491 1491 1492 1492 1493 1493 1494 1494 1494 1495 1495 1496 1496 1497 1497 1497 1498 1499
1469 1470 1470 1471 1472 1473 1473 1474 1474 1474 1475 1475 1476 1476 1476 1477 1477 1477 1478 1478 1478 1478 1478 1479 1479 1479 1479 1480 1480 1480 1481 1481 1482 1482 1482 1483 1483 1484 1484 1485 1485 1486 1486 1487 1487 1488 1488 1489 1489 1489 1490 1490 1491 1491 1492 1492 1493 1493 1494 1494 1495 1495 1495 1496 1496 1497 1497 1498 1499
1468 1468 1469 1470 1471 1471 1472 1472 1473 1473 1474 1474 1475 1475 1476 1476 1477 1477 1477 1477 1478 1478 1478 1478 1478 1479 1479 1479 1480 1480 1480 1481 1481 1482 1482 1482 1483 1483 1484 1484 1485 1485 1486 1486 1487 1487 1488 1488 1489 1489 1490 1490 1491 1491 1492 1492 1493 1493 1494 1494 1494 1495 1495 1495 1496 1497 1497 1498 1499
1466 1467 1468 1469 1469 1470 1470 1471 1472 1472 1473 1473 1474 1474 1475 1475 1476 1476 1477 1477 1477 1477 1477 1478 1478 1478 1478 1479 1479 1479 1480 1480 1481 1481 1481 1482 1482 1483 1483 1484 1484 1485 1485 1486 1486 1487 1487 1488 1488 1489 1489 1490 1490 1491 1491 1492 1492 1492 1493 1493 1494 1494 1494 1495 1496 1497 1497 1498 1499
1465 1466 1466 1467 1468 1469 1469 1470 1470 1471 1471 1472 1473 1474 1474 1475 1475 1475 1476 1476 1476 1477 1477 1477 1477 1478 1478 1478 1479 1479 1479 1480 1480 1481 1481 1481 1482 1482 1483 1483 1484 1484 1484 1485 1485 1486 1487 1487 1488 1489 1489 1489 1490 1490 1491 1491 1491 1492 1492 1492 1493 1494 1494 1495 1496 1496 1497 1498 1499
1464 1464 1465 1466 1466 1467 1468 1468 1469 1469 1470 1471 1472 1473 1473 1474 1474 1475 1475 1475 1476 1476 1476 1476 1477 1477 1477 1478 1478 1479 1479 1479 1480 1480 1481 1481 1481 1482 1482 1483 1483 1483 1484 1484 1485 1485 1486 1487 1487 1488 1489 1489 1489 1490 1490 1490 1491 1491 1491 1492 1492 1493 1494 1494 1495 1496 1497 1498 1498
1463 1463 1464 1464 1465 1466 1466 1467 1468 1469 1469 1470 1471 1471 1472 1473 1473 1474 1474 1475 1475 1475 1476 1476 1476 1477 1477 1477 1478 1478 1478 1479 1479 1480 1480 1481 1481 1481 1482 1482 1483 1483 1483 1484 1484 1485 1485 1486 1487 1487 1488 1489 1489 1489 1489 1490 1490 1490 1491 1491 1492 1493 1494 1494 1495 1496 1497 1497 1498
1462 1462 1463 1463 1464 1464 1465 1466 1466 1467 1468 1469 1469 1470 1471 1472 1472 1473 1474 1474 1474 1475 1475 1475 1476 1476 1476 1477 1477 1477 1478 1478 1479 1479 1480 1480 1481 1481 1481 1482 1482 1483 1483 1483 1484 1484 1485 1485 1486 1487 1487 1488 1488 1489 1489 1489 1489 1489 1490 1491 1492 1492 1493 1494 1495 1496 1496 1497 1498